Regional Weather Roundup
Issued by NWS

Home | Current Version | Previous Version | Graphics & Text | Print | Product List | Glossary On
Versions: 1 2 3 4 5 6 7 8 9 10 11 12 13 14 15 16 17 18 19 20 21 22 23 24 25 26 27 28 29 30 31 32 33 34 35 36 37 38 39 40 41 42 43 44 45 46 47 48 49 50
000
ASUS43 KMPX 181501
RWRMN
WEATHER ROUNDUP FOR MINNESOTA
NATIONAL WEATHER SERVICE TWIN CITIES/CHANHASSEN MN
900 AM CST WED JAN 18 2017


NOTE: "FAIR" INDICATES FEW OR NO CLOUDS BELOW 12,000 FEET WITH NO
SIGNIFICANT WEATHER AND/OR OBSTRUCTIONS TO VISIBILITY. N/A MEANS
CURRENT SKY AND/OR WEATHER CONDITIONS ARE NOT AVAILABLE.

MNZ060>063-068>070-181600-
   Twin Cities Metro

CITY           SKY/WX    TMP DP  RH WIND       PRES   REMARKS
TWIN CITIES    CLOUDY    31  26  82 S6        29.91R WCI  25
ST PAUL        CLOUDY    28  26  92 SE7       29.93S WCI  21
CRYSTAL        CLOUDY    30  24  78 S7        29.90R WCI  23
BLAINE         PTCLDY    34  34 100 SW6       29.90R WCI  29
LAKEVILLE      CLOUDY    28  28 100 S5        29.91R WCI  23
EDEN PRAIRIE   CLOUDY    30  26  85 S9        29.89R WCI  22
SOUTH ST PAUL  CLOUDY    30  27  88 CALM      29.92R
LAKE ELMO      FAIR      30  27  86 S10       29.92R WCI  21
$$
MNZ001>005-007-008-013>017-022>024-027-028-181600-
   Northwest Minnesota

CITY           SKY/WX    TMP DP  RH WIND       PRES   REMARKS
BEMIDJI        CLOUDY    27  20  76 SW7       29.71S WCI  19
HALLOCK        CLOUDY    19  18  93 S10       29.68R WCI   8
ROSEAU         CLOUDY    19  14  79 S10       29.67F WCI   8
WARROAD        CLOUDY    21  18  86 SW7       29.67S WCI  13
THIEF RVR FALL CLOUDY    22  17  81 S9        29.73R WCI  12
CROOKSTON      CLOUDY    19  16  86 S9        29.75R WCI   9
FOSSTON        CLOUDY    23  18  80 S16       29.74S WCI  10
DETROIT LAKES  CLOUDY    28  21  74 SW8       29.78S WCI  20
MOORHEAD       CLOUDY    21  16  79 S9        29.79R WCI  11
PARK RAPIDS    CLOUDY    18  14  84 SE7       29.76S FOG     WCI   9
MAHNOMEN       FAIR      23  18  82 S14       29.75S WCI  10
$$
MNZ006-009>011-018-025>026-181600-
   North Central Minnesota

CITY           SKY/WX    TMP DP  RH WIND       PRES   REMARKS
BAUDETTE       CLOUDY    20  15  81 S6        29.68S WCI  12
FLAG ISLAND    CLOUDY    12   9  85 S9        29.66R WCI   0
INTL FALLS     CLOUDY    22  16  78 SW3       29.71R
WASKISH        CLOUDY    18  14  86 CALM      29.72R
BIG FORK       CLOUDY    21  18  86 SW7       29.73R WCI  13
LONGVILLE      CLOUDY    25  21  86 SW5       29.77S WCI  19
GRAND RAPIDS   CLOUDY    24  21  88 S8        29.78S WCI  15
CRANE LAKE     CLOUDY    23  19  86 CALM      29.75R
ORR            CLOUDY    23  18  80 CALM      29.71R
COOK           CLOUDY    25  19  80 SW9       29.74S WCI  15
WALKER         FAIR      26  20  78 SW7       29.74S WCI  18
$$
MNZ012-019>021-037-181600-
   Northeast Minnesota

CITY           SKY/WX    TMP DP  RH WIND       PRES   REMARKS
DULUTH         CLOUDY    27  24  89 W14       29.78R WCI  16
ELY            CLOUDY    25  21  86 SW7       29.73F WCI  17
HIBBING        CLOUDY    22  21  96 CALM      29.76S
EVELETH        CLOUDY    24  21  89 SW6       29.77S WCI  17
DULUTH HARBOR  PTCLDY    30  27  86 SW12      29.83S WCI  21
TWO HARBORS    CLOUDY    27  21  80 SW5       29.77S HAZE    WCI  21
SILVER BAY     CLOUDY    25  25 100 SW5       29.76S WCI  19
GRAND MARAIS     N/A     32  26  78 W12       29.76F WCI  23
G MARAIS ARPRT CLOUDY    23  19  86 SW7       29.69F WCI  15
$$
MNZ029>031-032-039>041-046>048-054>057-064-181600-
   West Central Minnesota

CITY           SKY/WX    TMP DP  RH WIND       PRES   REMARKS
FERGUS FALLS   CLOUDY    21  18  86 S7        29.85F WCI  13
WHEATON        CLOUDY    25  21  86 SE8       29.83F WCI  16
MORRIS         CLOUDY    21  19  93 SE8       29.81F WCI  12
ALEXANDRIA     CLOUDY    26  21  81 SW10      29.82S WCI  16
ELBOW LAKE     FAIR      23  19  87 E8        29.82S FOG     WCI  14
WADENA         CLOUDY    21  19  93 CALM      29.79R
GLENWOOD       CLOUDY    25  21  86 S9        29.83S WCI  15
APPLETON       CLOUDY    27  21  80 CALM      29.84R
ORTONVILLE     CLOUDY    25  18  74 CALM      29.81F
MADISON        CLOUDY    28  21  74 S6        29.83S WCI  22
WILLMAR        FAIR      25  21  86 CALM      29.87S
$$
MNZ033>034-036-042>043-049>051-058-059-181600-
   Central Minnesota

CITY           SKY/WX    TMP DP  RH WIND       PRES   REMARKS
ST CLOUD       CLOUDY    23  22  96 S6        29.86S FOG     WCI  16
SAUK CENTRE    FAIR      23  20  88 S6        29.83F WCI  15
PAYNESVILLE    CLOUDY    26  26 100 S3        29.86S
AITKIN         CLOUDY    28  21  74 S8        29.79F WCI  20
PINE RIVER     CLOUDY    19  18  93 SE5       29.82F FOG     WCI  13
BRAINERD       CLOUDY    23  20  88 S7        29.82S FOG     WCI  15
STAPLES        CLOUDY    21  21 100 CALM      29.80R
LONG PRAIRIE   FAIR      21  19  93 SE5       29.82F FOG     WCI  15
LITTLE FALLS   CLOUDY    23  19  86 S5        29.84S WCI  17
LITCHFIELD     CLOUDY    27  25  93 CALM      29.87S
BUFFALO        CLOUDY    28  25  86 S7        29.89F WCI  21
MAPLE LAKE     CLOUDY    28  27  94 CALM      29.87F
HUTCHINSON     CLOUDY    26  25  94 S5        29.88S WCI  21
$$
MNZ037-044-045-052-053-181600-
   East Central Minnesota

CITY           SKY/WX    TMP DP  RH WIND       PRES   REMARKS
PRINCETON      CLOUDY    28  27  93 S8        29.86F WCI  20
MORA           CLOUDY    23  21  93 S5        29.87F FOG     WCI  17
CAMBRIDGE      CLOUDY    28  21  74 S5        29.86F HAZE    WCI  23
RUSH CITY      CLEAR     27  23  86 S6        29.88F FOG     WCI  20
MOOSE LAKE     CLOUDY    27  23  86 SW10      29.82R WCI  17
HINCKLEY       FAIR      28  27  93 S7        29.86S FOG     WCI  21
CLOQUET        CLOUDY    27  23  86 SW10      29.79S WCI  17
MCGREGOR       CLOUDY    28  25  86 S7        29.80F WCI  21
$$
MNZ071>073-080-081-089-090-097-098-181600-
   Southwest Minnesota

CITY           SKY/WX    TMP DP  RH WIND       PRES   REMARKS
MONTEVIDEO     CLOUDY    30  28  93 CALM      29.86R
GRANITE FALLS  CLOUDY    25  22  89 S9        29.87R WCI  15
CANBY            N/A     33  25  73 CALM      29.84R
MARSHALL       CLOUDY    32  25  75 SW13      29.85F WCI  22
REDWOOD FALLS  CLOUDY    26  22  84 S9        29.87S WCI  17
OLIVIA         CLOUDY    28  25  86 S10       29.86R WCI  19
PIPESTONE      CLOUDY    25  23  93 SW7       29.88R WCI  17
WINDOM         CLOUDY    30  27  86 SW10      29.89R WCI  21
WORTHINGTON    CLOUDY    30  27  88 SW20      29.88F WCI  17
JACKSON        CLOUDY    30  27  86 SW10      29.90F WCI  21
TRACY          CLOUDY    32  28  83 W7        29.86R WCI  26
SLAYTON        CLOUDY    28  26  89 SW12      29.88R WCI  18
$$
MNZ065>067-074>077-082>085-091>093-181600-
   South Central Minnesota

CITY           SKY/WX    TMP DP  RH WIND       PRES   REMARKS
MANKATO        CLOUDY    28  27  96 S15       29.92S FOG     WCI  16
NEW ULM        CLOUDY    27  23  86 S12       29.89R WCI  16
ST JAMES       CLEAR     28  27  93 S10       29.92S WCI  19
FAIRMONT       CLOUDY    31  28  89 S15       29.93F WCI  20
GLENCOE        CLOUDY    29  27  95 S7        29.89R WCI  21
FARIBAULT      CLOUDY    30  27  86 S10G18    29.91F FOG     WCI  21
OWATONNA       CLOUDY    30  27  86 S16       29.92F FOG     WCI  19
WASECA         CLOUDY    32  30  93 S15       29.94S FOG     WCI  22
ALBERT LEA     FOG       28  28 100 S5        29.96S VSB 1   WCI  23
$$
MNZ078>079-086>088-094>096-181600-
   Southeast Minnesota

CITY           SKY/WX    TMP DP  RH WIND       PRES   REMARKS
ROCHESTER      FOG       25  25 100 S17       29.94F VSB 1/2 WCI  12
RED WING       CLOUDY    30  25  80 CALM      29.93F
STANTON        CLOUDY    31  26  83 S14G20    29.88F HAZE    WCI  21
DODGE CENTER   CLOUDY    27  25  93 S6        29.93F FOG     WCI  20
WINONA         CLOUDY    32  28  86 SE6       29.99F WCI  26
AUSTIN         FOG       27  27 100 S13       29.98S VSB 1/4 WCI  16
PRESTON        FOG       26  24  96 S16       29.98S VSB 1/4 WCI  13
$$
ABBREVIATIONS USED IN REMARKS
   TC - TEMPERATURES IN CELSIUS
  WCI - WIND CHILL INDEX
   HX - HEAT INDEX
  VSB - VISIBILITY
$$




USA.gov is the U.S. government's official web portal to all federal, state and local government web resources and services.